User: anonymous   Login
Location: Ward Pound Ridge Reservation
(41.2500°N, 73.6000°W)
Time: 03:08:59
(UTC-04:00)
Language:

ISS - Orbit

View from above orbital plane
View from above orbital plane
View from above satellite
View from above satellite

Ground track
Ground track

The orbit data is extracted from the following two-line orbital elements,

1 25544U 98067A   18175.40162525  .00016717  00000-0  10270-3 0  9026
2 25544  51.6410 342.7519 0003646 229.2633 130.8203 15.53943741 39636
Epoch (UTC): 24 June 2018 09:38:20
Eccentricity: 0.0003646
inclination: 51.6410°
perigee height: 403 km
apogee height: 408 km
right ascension of ascending node: 342.7519°
argument of perigee: 229.2633°
revolutions per day: 15.53943741
mean anomaly at epoch: 130.8203°
orbit number at epoch: 3963

The dashed part of the orbit path shows where the satellite is in the earth's shadow,  

DLR